| time (UTC) | temp C | wind direction | speed KPH | gust KPH | rain 1hr cm | rain 24hr cm | rain mn cm | humidity % | barometer mb |
| 20260502214548 | 8 | 18 | 4.8 | 14.5 | 0.00 | 0.03 | 0.00 | 48 | 1018.1 |
| 20260502213043 | 8 | 342 | 8.0 | 16.1 | 0.00 | 0.03 | 0.00 | 48 | 1018.1 |
| 20260502211546 | 8 | 9 | 8.0 | 17.7 | 0.00 | 0.03 | 0.00 | 50 | 1018.1 |
| 20260502210034 | 8 | 14 | 12.9 | 20.9 | 0.00 | 0.03 | 0.00 | 47 | 1018.0 |
| 20260502204531 | 8 | 5 | 12.9 | 17.7 | 0.00 | 0.03 | 0.00 | 48 | 1018.1 |
| 20260502203024 | 7 | 355 | 6.4 | 17.7 | 0.00 | 0.03 | 0.00 | 51 | 1018.1 |
| 20260502201520 | 7 | 14 | 9.7 | 19.3 | 0.00 | 0.03 | 0.00 | 51 | 1018.2 |
| 20260502200016 | 8 | 16 | 8.0 | 16.1 | 0.00 | 0.03 | 0.00 | 52 | 1018.2 |
| 20260502194513 | 7 | 333 | 8.0 | 12.9 | 0.00 | 0.03 | 0.00 | 53 | 1018.4 |
| 20260502193009 | 7 | 5 | 12.9 | 17.7 | 0.00 | 0.03 | 0.00 | 52 | 1018.4 |
| 20260502191506 | 7 | 9 | 8.0 | 19.3 | 0.00 | 0.03 | 0.00 | 51 | 1018.6 |
| 20260502190059 | 7 | 12 | 9.7 | 17.7 | 0.00 | 0.03 | 0.00 | 51 | 1018.7 |
| 20260502184554 | 7 | 326 | 11.3 | 17.7 | 0.00 | 0.03 | 0.00 | 51 | 1018.6 |
| 20260502183050 | 7 | 346 | 14.5 | 25.7 | 0.00 | 0.03 | 0.00 | 51 | 1018.7 |
| 20260502181550 | 7 | 360 | 9.7 | 19.3 | 0.00 | 0.03 | 0.00 | 51 | 1018.8 |
| 20260502163021 | 7 | 281 | 8.0 | 16.1 | 0.00 | 0.03 | 0.00 | 48 | 1019.5 |
| 20260502161509 | 7 | 9 | 9.7 | 17.7 | 0.00 | 0.03 | 0.00 | 51 | 1019.5 |
| 20260502151555 | 6 | 355 | 11.3 | 17.7 | 0.00 | 0.03 | 0.00 | 54 | 1019.6 |
| 20260502123003 | 2 | 11 | 6.4 | 11.3 | 0.00 | 0.15 | 0.00 | 46 | 1019.1 |
| 20260502121559 | 2 | 351 | 6.4 | 14.5 | 0.00 | 0.15 | 0.00 | 44 | 1019.0 |
| 20260502114550 | 1 | 5 | 8.0 | 11.3 | 0.00 | 0.28 | 0.00 | 28 | 1018.5 |
| 20260502113047 | 1 | 15 | 0.0 | 3.2 | 0.00 | 0.28 | 0.00 | 22 | 1018.5 |
| 20260502111549 | 1 | 15 | 0.0 | 0.0 | 0.00 | 0.28 | 0.00 | 28 | 1018.6 |
| 20260502110041 | 1 | 15 | 0.0 | 1.6 | 0.00 | 0.28 | 0.00 | 37 | 1018.4 |
| 20260502104540 | 1 | 15 | 0.0 | 3.2 | 0.00 | 0.41 | 0.00 | 42 | 1018.4 |
| 20260502103038 | 1 | 15 | 0.0 | 3.2 | 0.00 | 0.41 | 0.00 | 44 | 1018.3 |
| 20260502101537 | 1 | 15 | 0.0 | 6.4 | 0.00 | 0.41 | 0.00 | 46 | 1018.2 |
| 20260502091531 | 2 | 5 | 0.0 | 3.2 | 0.00 | 0.43 | 0.00 | 54 | 1018.2 |
| 20260502071515 | 3 | 9 | 6.4 | 11.3 | 0.00 | 0.43 | 0.00 | 34 | 1017.9 |
| 20260502070012 | 3 | 355 | 0.0 | 0.0 | 0.00 | 0.43 | 0.00 | 33 | 1018.0 |
| 20260502064517 | 3 | 355 | 0.0 | 3.2 | 0.00 | 0.43 | 0.00 | 33 | 1018.1 |
| 20260502063011 | 3 | 355 | 0.0 | 1.6 | 0.00 | 0.43 | 0.00 | 38 | 1018.1 |
| 20260502061505 | 3 | 355 | 0.0 | 1.6 | 0.00 | 0.43 | 0.00 | 44 | 1018.2 |
| 20260502060004 | 3 | 355 | 0.0 | 3.2 | 0.00 | 0.43 | 0.00 | 48 | 1018.1 |
| 20260502054502 | 3 | 355 | 0.0 | 0.0 | 0.00 | 0.43 | 0.00 | 50 | 1018.1 |
| 20260502053105 | 3 | 355 | 0.0 | 0.0 | 0.00 | 0.43 | 0.00 | 52 | 1018.1 |
| 20260502051559 | 4 | 355 | 0.0 | 0.0 | 0.00 | 0.43 | 0.00 | 54 | 1018.2 |
| 20260502050057 | 4 | 355 | 0.0 | 3.2 | 0.00 | 0.43 | 0.00 | 57 | 1018.1 |
| 20260502044555 | 4 | 355 | 1.6 | 4.8 | 0.00 | 0.43 | 0.00 | 58 | 1018.1 |
| 20260502043056 | 4 | 355 | 3.2 | 8.0 | 0.00 | 0.43 | 0.00 | 58 | 1018.2 |
| 20260502041557 | 4 | 17 | 3.2 | 6.4 | 0.00 | 0.43 | 0.00 | 58 | 1018.2 |
| 20260502040055 | 5 | 360 | 6.4 | 9.7 | 0.00 | 0.43 | 0.00 | 59 | 1018.1 |
| 20260502034549 | 5 | 13 | 3.2 | 6.4 | 0.00 | 0.43 | 0.43 | 58 | 1018.4 |
| 20260502033043 | 5 | 287 | 1.6 | 3.2 | 0.00 | 0.43 | 0.43 | 59 | 1018.4 |
| 20260502031538 | 5 | 286 | 0.0 | 3.2 | 0.00 | 0.43 | 0.43 | 59 | 1018.4 |
| 20260502030035 | 5 | 286 | 1.6 | 3.2 | 0.00 | 0.43 | 0.43 | 60 | 1018.1 |
| 20260502024531 | 5 | 286 | 1.6 | 3.2 | 0.00 | 0.43 | 0.43 | 60 | 1018.1 |
| 20260502023031 | 5 | 5 | 0.0 | 1.6 | 0.00 | 0.43 | 0.43 | 60 | 1017.9 |
| 20260502021528 | 6 | 5 | 1.6 | 6.4 | 0.00 | 0.43 | 0.43 | 59 | 1017.5 |
| 20260502020025 | 6 | 5 | 0.0 | 6.4 | 0.00 | 0.43 | 0.43 | 59 | 1017.3 |
| 20260502014512 | 6 | 9 | 1.6 | 8.0 | 0.00 | 0.43 | 0.43 | 58 | 1017.2 |
| 20260502013007 | 6 | 12 | 8.0 | 12.9 | 0.00 | 0.43 | 0.43 | 57 | 1016.9 |
| 20260502011504 | 7 | 10 | 6.4 | 14.5 | 0.00 | 0.43 | 0.43 | 57 | 1016.6 |
| 20260502010059 | 7 | 9 | 8.0 | 14.5 | 0.00 | 0.43 | 0.43 | 56 | 1016.4 |
| 20260502004554 | 7 | 5 | 8.0 | 16.1 | 0.00 | 0.43 | 0.43 | 55 | 1016.1 |
| 20260502003050 | 8 | 11 | 9.7 | 17.7 | 0.00 | 0.43 | 0.43 | 54 | 1016.2 |
| 20260502001546 | 8 | 343 | 12.9 | 20.9 | 0.00 | 0.43 | 0.43 | 52 | 1016.0 |
| 20260502000048 | 8 | 5 | 9.7 | 16.1 | 0.00 | 0.43 | 0.43 | 55 | 1015.9 |
| 20260501234539 | 8 | 9 | 6.4 | 14.5 | 0.03 | 0.43 | 0.43 | 57 | 1015.6 |
| 20260501233033 | 8 | 360 | 8.0 | 16.1 | 0.03 | 0.43 | 0.43 | 57 | 1015.6 |
| 20260501231528 | 8 | 355 | 9.7 | 17.7 | 0.03 | 0.43 | 0.43 | 56 | 1015.6 |
| 20260501230023 | 8 | 355 | 9.7 | 20.9 | 0.03 | 0.43 | 0.43 | 56 | 1015.6 |
| 20260501224518 | 8 | 346 | 1.6 | 11.3 | 0.00 | 0.41 | 0.41 | 56 | 1015.6 |
| 20260501223016 | 9 | 349 | 3.2 | 17.7 | 0.00 | 0.41 | 0.41 | 57 | 1015.7 |
| 20260501221515 | 9 | 234 | 4.8 | 20.9 | 0.00 | 0.41 | 0.41 | 56 | 1015.5 |
| 20260501220006 | 10 | 9 | 8.0 | 16.1 | 0.00 | 0.41 | 0.41 | 55 | 1015.4 |